Location: Newark
(42.7133°N, 87.7910°W)
Time: 02:58:30
(UTC+00:00)

Transit 4A - Pass Details

Date: 23 September 2019
Orbit: 867 x 978 km, 66.8° (Epoch: 21 October)

Event Time Altitude Azimuth Distance (km) Brightness Sun altitude
Rises 02:13:06 0° 325° (NW) 3,585 11.9 -26.4°
Reaches altitude 10° 02:15:43 10° 321° (NW) 2,620 11.1 -26.8°
Maximum altitude 02:21:35 53° 246° (WSW) 1,101 8.4 -27.8°
Enters shadow 02:23:02 43° 203° (SSW) 1,245 8.4 -28.0°
